Belo Horizonte, Brazil

6:34 PM -03 on April 28, 2017 (GMT -0300)
Tancredo Neves International

Weather History for SBCF - March, 2013

Change the Weather History Date:

Sunday, March 10, 2013

  Actual Average Record
Temperature  
Mean Temperature 74 °F -  
Max Temperature 84 °F 83 °F 89 °F (1998)
Min Temperature 64 °F 65 °F 60 °F (2011)
Cooling Degree Days 9    
Growing Degree Days 24 (Base 50)    
Moisture  
Dew Point 61 °F    
Average Humidity 69    
Maximum Humidity 94    
Minimum Humidity 45    
Precipitation  
Precipitation 0.00 in 0.17 in - ()
Sea Level Pressure  
Sea Level Pressure 30.00 in    
Wind  
Wind Speed 5 mph ()    
Max Wind Speed 14 mph    
Max Gust Speed -    
Visibility 6.2 miles    
Events      
Averages and records for this station are not official NWS values.
T = Trace of Precipitation, MM = Missing Value Source: Averaged Metar Reports

Daily Weather History Graph

Daily Weather History Graph

Search for Another Location

Airport or City:

Trip Planner

Search our weather history database for the weather conditions in past years. The results will help you decide how hot, cold, wet, or windy it might be!

Date:

Astronomy

Mar. 10, 2013 Rise Set
Actual Time 5:56 AM -03 6:14 PM -03
Civil Twilight 5:34 AM -03 6:36 PM -03
Nautical Twilight 5:09 AM -03 7:02 PM -03
Astronomical Twilight 4:43 AM -03 7:28 PM -03
Moon 4:38 AM -03 (3/10) 5:17 PM -03 (3/10)
Length of Visible Light 13h 02m
Length of Day
12h 18m
Waning Crescent, 2% of the Moon is Illuminated
Mar 10
Waning Crescent
Mar 11
New
Mar 19
First Quarter
Mar 27
Full
Apr 3
Last Quarter

Hourly Weather History & Observations

Time (-03) Temp. Heat Index Dew Point Humidity Pressure Visibility Wind Dir Wind Speed Gust Speed Precip Events Conditions
12:00 AM 69.8 °F - 62.6 °F 78% 30.04 in 6.2 mi SW 2.3 mph - N/A   Scattered Clouds
1:00 AM 68.0 °F - 62.6 °F 83% 30.04 in 6.2 mi SSW 3.5 mph - N/A   Scattered Clouds
2:00 AM 68.0 °F - 60.8 °F 78% 30.01 in 6.2 mi South 2.3 mph - N/A   Scattered Clouds
3:00 AM 66.2 °F - 60.8 °F 83% 30.01 in 6.2 mi SSW 3.5 mph - N/A   Scattered Clouds
4:00 AM 66.2 °F - 60.8 °F 83% 29.98 in 6.2 mi SSW 3.5 mph - N/A   Scattered Clouds
5:00 AM 64.4 °F - 60.8 °F 88% 30.01 in 6.2 mi South 3.5 mph - N/A   Scattered Clouds
6:00 AM 66.2 °F - 62.6 °F 88% 30.06 in 6.2 mi SW 4.6 mph - N/A   Mostly Cloudy
7:00 AM 66.2 °F - 62.6 °F 88% 30.06 in 6.2 mi SSW 4.6 mph - N/A   Mostly Cloudy
8:00 AM 68.0 °F - 62.6 °F 83% 30.06 in 6.2 mi SSW 5.8 mph - N/A   Scattered Clouds
9:00 AM 71.6 °F - 62.6 °F 73% 30.06 in 6.2 mi ENE 4.6 mph - N/A   Scattered Clouds
10:00 AM 73.4 °F - 62.6 °F 69% 30.06 in 6.2 mi NE 5.8 mph - N/A   Scattered Clouds
11:00 AM 77.0 °F - 60.8 °F 57% 30.06 in 6.2 mi NE 6.9 mph - N/A   Scattered Clouds
12:00 PM 80.6 °F 81.8 °F 62.6 °F 54% 30.01 in 6.2 mi WNW 6.9 mph - N/A   Scattered Clouds
1:00 PM 82.4 °F 82.9 °F 60.8 °F 48% 29.98 in 6.2 mi NW 10.4 mph - N/A   Scattered Clouds
2:00 PM 82.4 °F 82.5 °F 59.0 °F 45% 29.95 in 6.2 mi NW 11.5 mph - N/A   Scattered Clouds
3:00 PM 84.2 °F 84.4 °F 60.8 °F 45% 29.92 in 6.2 mi WNW 9.2 mph - N/A   Scattered Clouds
4:00 PM 84.2 °F 84.4 °F 60.8 °F 45% 29.89 in 6.2 mi NW 13.8 mph - N/A   Scattered Clouds
5:00 PM 82.4 °F 82.5 °F 59.0 °F 45% 29.92 in 6.2 mi WNW 13.8 mph - N/A   Scattered Clouds
6:00 PM 78.8 °F - 60.8 °F 54% 29.92 in 6.2 mi WNW 6.9 mph - N/A   Partly Cloudy
7:00 PM 75.2 °F - 60.8 °F 61% 29.95 in 6.2 mi WNW 5.8 mph - N/A   Partly Cloudy
8:00 PM 75.2 °F - 60.8 °F 61% 29.98 in 6.2 mi West 3.5 mph - N/A   Partly Cloudy
9:00 PM 71.6 °F - 62.6 °F 73% 30.01 in - SW 8.1 mph - N/A   Clear
11:00 PM 64.4 °F - 62.6 °F 94% 30.09 in 6.2 mi SSW 1.2 mph - N/A   Mostly Cloudy